SCP
0 0 0 0 0 0 0 0 0 0 0 0 0 0 0 0 0 0 0 0 1 1 1 1 1 1 1 1 0 0 0 0 0 1 0 0 0 0 0 0 0 1 1
0 0 0 0 0 0 0 0 0 0 0 0 0 0 0 0 0 0 0 0 0 1 1 1 1 1 1 0 0 0 0 0 0 1 1 0 0 0 0 0 1 1 1
0 0 0 0 0 0 0 0 0 0 0 0 0 0 0 0 0 0 0 0 0 0 0 0 0 0 0 0 0 0 0 1 1 1 1 0 0 1 0 0 1 1 1
0 0 0 0 0 0 0 0 0 0 0 0 0 0 0 0 0 0 0 0 0 0 0 0 0 0 0 0 0 0 1 1 1 1 1 1 1 1 1 1 1 1 1
0 0 0 0 0 0 0 0 0 0 0 0 0 0 0 0 0 0 0 0 0 0 0 0 0 0 0 0 0 1 1 1 1 1 1 1 1 1 1 1 1 1 1
0 0 0 0 0 0 0 0 0 0 0 0 0 0 0 0 0 0 0 0 0 0 0 0 0 0 0 0 1 1 1 0 0 1 1 1 1 1 1 1 1 1 1
0 0 0 0 0 0 0 0 0 0 0 0 0 0 0 0 0 0 0 0 0 0 0 0 0 0 0 0 0 1 1 1 0 1 1 1 1 1 1 1 1 1 1
0 0 0 0 0 0 0 0 0 0 0 0 0 0 0 0 0 0 0 0 0 0 0 0 0 0 0 0 0 0 1 1 1 1 1 1 1 1 1 1 1 1 1
0 0 0 0 0 0 0 0 0 0 0 0 0 0 0 0 0 0 0 0 0 0 0 0 0 0 0 0 0 0 0 1 1 0 1 1 1 1 1 1 1 1 1
0 0 0 0 0 0 0 0 0 0 0 0 0 0 0 0 0 0 0 0 0 0 0 0 0 0 0 0 0 0 0 0 0 1 1 1 1 1 1 1 1 0 0
0 0 0 0 0 0 0 0 0 0 0 0 0 0 0 0 0 0 0 0 0 0 0 0 0 0 0 0 0 0 0 0 0 0 1 1 1 1 1 1 0 0 0
0 0 0 0 0 0 0 0 0 0 0 0 0 0 0 0 0 0 0 0 0 0 0 0 0 0 0 0 0 0 0 0 0 0 0 0 0 0 0 0 0 0 0
0 0 0 0 0 0 0 0 0 0 0 0 0 0 0 0 0 0 0 0 0 0 0 0 0 0 0 0 0 0 0 0 0 0 0 0 0 0 0 0 0 0 0
0 0 0 0 0 0 0 0 0 0 0 0 0 0 0 0 0 0 0 0 0 0 0 0 0 0 0 0 0 0 0 0 0 0 0 0 0 0 0 0 0 0 0
0 0 0 0 0 0 0 0 0 0 0 0 0 0 0 0 0 0 0 0 0 0 0 0 0 0 0 0 0 0 0 0 0 0 0 0 0 0 0 0 0 0 0
0 0 0 0 0 0 0 0 0 0 0 0 0 0 0 0 0 0 0 0 0 0 0 0 0 0 0 0 0 0 0 0 0 0 0 0 0 0 0 0 0 0 0
0 0 0 0 0 0 0 0 0 0 0 0 0 0 0 0 0 0 0 0 0 0 0 0 0 0 0 0 0 0 0 0 0 0 0 0 0 0 0 0 0 0 0
0 0 0 0 0 0 0 0 0 0 0 0 0 0 0 0 0 0 0 0 0 0 0 0 0 0 0 0 0 0 0 0 0 0 0 0 0 0 0 0 0 0 0
0 0 0 0 0 0 0 0 0 0 0 0 0 0 0 0 0 0 0 0 0 0 0 0 0 0 0 0 0 0 0 0 0 0 0 0 0 0 0 0 0 0 0
0 0 0 0 0 0 0 0 0 0 0 0 0 0 0 0 0 0 0 0 0 0 0 0 0 0 0 0 0 0 0 0 0 0 0 0 0 0 0 0 0 0 0
0 0 0 0 0 0 0 0 0 0 0 0 0 0 0 0 0 0 0 0 0 0 0 0 0 0 0 0 0 0 0 0 0 0 0 0 0 0 0 0 0 0 0
0 0 0 0 0 0 0 0 0 0 0 0 0 0 0 0 0 0 0 0 0 0 0 0 0 0 0 0 0 0 0 0 0 0 0 0 0 0 0 0 0 0 0
0 0 0 0 0 0 0 0 0 0 0 0 0 0 0 0 0 0 0 0 0 0 0 0 0 0 0 0 0 0 0 0 0 0 0 0 0 0 0 0 0 0 0
0 0 0 0 0 0 0 0 0 0 0 0 0 0 0 0 0 0 0 0 0 0 0 0 0 0 0 0 0 0 0 0 0 0 0 0 0 0 0 0 0 0 0
0 0 0 0 0 0 0 0 0 0 0 0 0 0 0 0 0 0 0 0 0 0 0 0 0 0 0 0 0 0 0 0 0 0 0 0 0 0 0 0 0 0 0
0 0 0 0 0 0 0 0 0 0 0 0 0 0 0 0 0 0 0 0 0 0 0 0 0 0 0 0 0 0 0 0 0 0 0 0 0 0 0 0 0 0 0
Wind_Speed
2 2 2 2 2 3 3 3 4 5 5 5 5 5 5 4 4 3 3 7 8 7 7 7 6 6 6 6 6 6 5 5 5 4 4 3 3 3 3 3 3 3 3
3 2 2 2 2 2 3 3 4 4 4 4 5 5 5 4 4 4 3 5 8 8 8 7 7 6 6 6 6 6 5 5 5 5 4 3 3 3 3 3 3 3 3
3 3 2 2 2 2 3 4 4 4 4 4 5 5 4 4 4 4 4 3 4 8 9 8 8 7 6 6 6 6 6 6 5 5 4 4 3 3 3 3 3 3 3
4 3 3 2 2 3 3 3 3 4 4 4 3 3 3 3 4 4 4 3 3 4 6 8 8 8 7 7 6 6 7 7 7 6 6 5 5 4 4 4 4 5 5
4 4 3 2 3 3 2 3 3 3 3 3 3 3 3 3 3 4 4 4 3 4 3 6 8 8 8 7 7 7 7 7 7 8 7 7 7 6 6 6 6 6 6
4 4 3 3 3 3 3 3 3 3 3 2 3 4 3 3 3 3 3 3 3 4 4 4 4 6 9 9 8 8 8 8 8 8 9 9 9 8 8 7 7 7 7
3 3 3 3 3 3 3 3 3 4 3 2 3 3 3 4 3 2 2 2 3 3 4 4 4 3 4 8 9 9 9 8 8 9 9 9 10 9 9 9 8 8 8
2 3 3 2 2 3 3 3 3 2 1 1 2 2 2 3 3 3 2 2 3 3 3 4 4 4 4 3 6 10 9 9 9 9 9 9 9 9 9 9 10 10 9
1 2 3 3 3 3 3 2 2 3 2 0 1 3 3 1 1 3 3 2 2 2 2 2 4 4 4 4 4 6 9 9 8 8 8 9 9 9 10 10 10 10 10
1 2 3 3 3 2 3 2 2 2 3 1 0 1 2 3 3 1 2 2 2 3 2 2 3 3 3 3 5 8 9 10 9 8 8 9 9 10 10 10 10 10 10
1 1 2 3 3 2 3 2 2 2 2 2 1 1 2 2 2 3 0 2 2 2 2 2 1 2 2 3 2 5 8 8 8 9 9 9 10 10 10 10 10 10 10
0 1 2 2 3 3 3 2 2 2 2 2 1 1 2 2 2 2 2 1 0 1 2 2 1 1 1 2 3 6 7 7 7 8 9 9 10 10 10 10 10 10 10
1 1 2 2 2 2 2 2 2 2 2 2 1 1 1 1 2 3 3 2 1 1 1 1 1 1 1 1 1 4 5 6 7 7 7 8 9 9 10 10 10 10 10
2 2 2 2 2 2 3 2 2 1 1 1 1 1 1 1 2 3 3 4 2 1 1 1 1 1 1 1 1 2 2 5 5 5 6 7 7 8 8 9 9 9 10
2 2 2 2 2 2 2 3 2 2 2 1 1 1 1 1 1 2 3 4 4 2 1 2 1 1 0 0 1 1 1 3 4 4 4 5 6 6 7 8 8 9 9
2 2 2 3 2 2 2 3 2 1 2 1 1 1 1 1 1 1 2 2 2 4 2 2 2 1 1 1 1 1 1 2 2 3 3 3 4 5 6 6 7 8 8
2 3 3 3 3 2 3 3 3 2 2 1 1 1 1 1 1 1 1 1 2 3 3 1 1 1 1 1 1 1 0 1 1 2 2 3 3 4 5 5 6 7 8
2 3 3 3 3 3 3 4 4 3 3 2 2 1 1 1 1 1 1 2 2 2 3 3 1 1 2 2 1 1 0 0 0 1 1 2 2 3 4 4 5 5 6
2 2 2 3 3 3 3 4 4 3 3 3 3 3 3 2 2 1 1 2 2 2 2 3 2 1 1 1 1 0 0 1 0 1 1 1 1 2 2 3 4 4 5
2 2 2 2 2 2 2 2 2 3 2 2 3 3 3 3 4 3 2 2 2 2 2 2 2 1 1 1 1 1 0 1 1 1 1 1 1 2 2 2 2 3 4
2 2 2 2 1 2 2 2 2 3 2 2 1 2 2 4 5 4 2 3 3 3 2 2 2 1 1 2 2 2 1 0 1 0 0 1 1 1 2 2 2 2 2
2 2 2 2 2 2 3 4 3 2 2 2 2 1 1 2 4 4 4 5 6 5 4 3 2 3 4 3 2 2 2 1 1 1 1 1 0 1 2 2 2 2 1
2 2 2 2 2 3 4 4 4 3 2 2 3 2 1 1 2 2 3 3 3 5 6 5 5 5 5 5 4 3 3 3 3 2 1 1 1 2 2 2 2 1 1
2 2 2 3 2 3 3 3 4 2 2 2 3 3 3 2 2 3 2 1 1 2 4 4 4 5 4 4 5 5 4 2 0 1 2 1 1 2 2 2 2 1 1
2 2 2 3 3 3 4 4 4 2 1 2 2 2 3 3 4 3 3 2 1 2 2 3 4 5 5 6 5 3 3 2 1 2 1 2 1 1 1 2 2 1 1
2 2 2 2 3 3 4 4 4 2 2 1 1 2 4 4 5 5 4 3 2 2 1 0 1 2 2 4 6 5 5 4 2 2 2 2 1 1 1 2 2 1 1
Wind_Direction
100 89 72 68 68 68 71 67 62 63 64 62 68 75 74 68 66 58 52 66 70 70 77 82 82 79 84 82 75 70 66 62 60 62 65 62 52 42 31 24 27 26 19
111 104 91 78 75 75 78 82 79 75 70 68 67 68 68 65 61 59 48 52 58 60 62 67 70 70 75 77 74 71 66 59 55 54 58 56 48 41 34 31 28 23 13
107 105 98 90 85 88 89 88 85 80 75 68 63 63 65 60 62 58 51 42 44 53 55 54 54 57 66 67 68 65 57 50 50 50 51 49 49 51 44 41 39 31 31
106 101 100 100 95 89 88 94 89 84 72 63 59 53 56 58 58 60 57 49 42 42 45 48 46 49 57 57 59 60 59 55 55 51 50 48 47 50 48 44 41 39 43
104 102 102 105 101 91 86 103 93 99 94 80 71 56 47 51 55 66 61 55 52 47 38 41 43 45 50 55 56 57 56 56 56 54 53 53 53 53 49 44 45 46 43
105 103 102 99 99 93 80 87 98 88 100 100 79 57 39 42 53 60 62 56 55 51 42 36 30 38 46 49 51 54 55 58 60 57 57 56 52 51 48 46 50 50 47
105 107 108 103 100 104 110 106 101 87 85 97 82 51 25 32 43 39 42 55 53 47 47 43 37 28 29 46 48 54 55 60 59 54 52 51 50 49 47 49 51 51 49
117 122 127 130 120 113 107 108 114 107 101 108 116 102 43 11 12 29 35 52 50 50 52 48 45 40 29 32 43 52 53 55 56 55 52 50 50 49 52 52 51 47 45
130 133 137 138 136 133 142 147 142 132 133 58 129 138 136 177 334 359 21 37 42 54 49 47 53 46 44 38 35 42 52 51 56 56 54 53 50 49 49 50 49 46 42
140 138 141 142 144 141 149 168 146 138 132 135 13 78 142 149 139 49 356 10 32 48 51 56 51 47 44 43 46 52 54 48 51 49 52 54 52 50 47 46 46 44 42
140 143 149 142 139 144 158 159 141 139 136 143 143 116 90 79 107 132 135 345 17 20 42 51 58 56 47 46 43 57 58 52 47 44 47 50 49 48 46 44 43 42 42
182 163 153 147 148 152 158 163 161 154 147 130 128 133 140 144 159 142 153 186 31 345 24 33 43 54 56 56 62 67 66 60 55 49 46 43 42 42 42 41 40 37 37
185 211 162 161 162 166 163 153 144 164 158 142 154 159 158 168 160 145 141 153 139 326 11 10 351 10 73 66 62 76 70 65 58 53 47 42 39 37 36 35 36 34 33
198 195 177 170 170 169 162 153 148 161 146 155 156 145 147 178 158 151 155 148 131 7 5 303 329 349 18 72 58 67 68 66 59 54 49 45 42 37 34 32 31 29 30
198 190 179 173 179 177 169 152 151 175 141 148 174 163 156 191 164 167 159 154 150 161 241 251 278 287 283 70 54 73 59 67 61 57 53 51 44 38 35 33 32 30 28
185 174 178 179 177 170 167 155 160 180 143 174 182 158 166 185 170 158 165 166 151 152 182 222 224 226 198 149 135 110 106 76 58 59 60 58 46 36 33 31 31 31 29
186 178 180 182 182 175 171 163 175 171 163 187 195 170 208 188 174 174 164 159 153 142 154 219 211 188 170 169 92 46 42 20 22 52 48 46 42 35 32 29 27 29 29
192 186 178 186 196 189 188 183 189 186 179 190 206 189 226 202 192 195 178 178 176 165 154 168 187 177 192 185 164 167 119 86 11 42 49 41 35 32 28 23 22 25 27
189 182 179 192 203 199 200 204 196 191 195 202 197 198 211 183 207 208 187 183 181 158 146 155 178 183 172 159 123 165 103 357 10 78 62 24 8 10 10 17 19 19 21
182 192 189 191 195 193 195 189 176 174 184 201 200 200 205 196 199 194 185 184 163 139 140 149 161 169 167 159 129 155 356 339 337 17 30 25 15 351 345 360 13 21 24
191 195 186 179 177 180 183 168 165 167 174 192 218 216 211 204 195 185 173 177 159 150 152 159 172 165 181 173 193 187 174 198 315 292 8 346 352 334 321 319 326 348 11
193 177 185 185 188 199 179 178 173 173 182 183 201 227 234 201 191 188 180 172 166 166 172 174 187 195 209 201 184 167 154 135 268 250 147 293 7 285 288 279 291 311 327
189 180 191 187 201 206 192 180 173 166 180 191 196 198 222 214 174 169 181 174 188 197 186 179 187 204 202 198 177 177 183 186 215 210 142 273 292 270 275 285 273 284 295
186 198 204 198 197 210 191 165 153 149 165 204 210 203 195 204 198 169 157 154 213 228 213 201 203 212 208 192 182 182 183 172 201 214 154 206 272 272 295 299 295 274 285
201 217 211 196 195 213 196 182 159 156 172 223 228 201 181 188 200 160 148 167 240 283 264 232 224 224 217 194 165 138 141 142 216 250 199 170 222 288 312 300 298 297 282
206 211 230 220 204 208 207 202 178 162 180 221 241 224 204 195 192 169 161 169 202 243 257 290 260 254 215 197 187 180 175 171 182 232 210 168 190 146 310 294 298 309 302